Weather History for Jamestown, NY

Change the Weather History Date:

Tuesday, April 30, 2013

  Actual Average Record
Temperature  
Mean Temperature 58 °F -  
Max Temperature 66 °F 63 °F 83 °F (1990)
Min Temperature 51 °F 35 °F 22 °F (1977)
Degree Days  
Heating Degree Days 6    
Growing Degree Days 8 (Base 50)    
Moisture  
Dew Point 49 °F    
Average Humidity 71    
Maximum Humidity 88    
Minimum Humidity 52    
Precipitation  
Precipitation 0.00 in - - ()
Sea Level Pressure  
Sea Level Pressure 30.14 in    
Wind  
Wind Speed 10 mph (South)    
Max Wind Speed 18 mph    
Max Gust Speed 26 mph    
Visibility 10 miles    
Events      
Averages and records for this station are not official NWS values.
T = Trace of Precipitation, MM = Missing Value Source: NWS Daily Summary

Daily Weather History Graph

Daily Weather History Graph

Search for Another Location

Airport:

Trip Planner

Search our weather history database for the weather conditions in past years. The results will help you decide how hot, cold, wet, or windy it might be!

Date:

Astronomy

Apr. 30, 2013 Rise Set
Actual Time 6:13 AM EDT 8:15 PM EDT
Civil Twilight 5:43 AM EDT 8:45 PM EDT
Nautical Twilight 5:06 AM EDT 9:23 PM EDT
Astronomical Twilight 4:25 AM EDT 10:04 PM EDT
Moon 12:38 AM EDT (4/30) 10:39 AM EDT (4/30)
Length of Visible Light 15h 02m
Length of Day
14h 01m
Waning Gibbous, 70% of the Moon is Illuminated
Apr 30
Waning Gibbous
May 2
Last Quarter
May 9
New
May 18
First Quarter
May 25
Full

Hourly Weather History & Observations

Time (EDT) Temp. Dew Point Humidity Pressure Visibility Wind Dir Wind Speed Gust Speed Precip Events Conditions
12:15 AM 51.8 °F 48.2 °F 88% 30.05 in 10.0 mi South 9.2 mph - N/A   Overcast
12:35 AM 53.6 °F 48.2 °F 82% 30.05 in 10.0 mi South 10.4 mph - N/A   Overcast
12:55 AM 53.6 °F 48.2 °F 82% 30.06 in 10.0 mi South 9.2 mph - N/A   Overcast
1:15 AM 53.6 °F 48.2 °F 82% 30.06 in 10.0 mi South 6.9 mph - N/A   Overcast
1:35 AM 53.6 °F 48.2 °F 82% 30.07 in 10.0 mi South 8.1 mph - N/A   Overcast
1:55 AM 53.6 °F 48.2 °F 82% 30.07 in 10.0 mi South 8.1 mph - N/A   Overcast
2:15 AM 53.6 °F 48.2 °F 82% 30.07 in 10.0 mi South 8.1 mph - N/A   Overcast
2:35 AM 53.6 °F 48.2 °F 82% 30.07 in 10.0 mi South 8.1 mph - N/A   Overcast
2:55 AM 53.6 °F 48.2 °F 82% 30.07 in 10.0 mi South 8.1 mph - N/A   Overcast
3:15 AM 53.6 °F 50.0 °F 88% 30.07 in 10.0 mi South 8.1 mph - N/A   Overcast
3:35 AM 53.6 °F 48.2 °F 82% 30.08 in 10.0 mi South 6.9 mph - N/A   Overcast
3:55 AM 53.6 °F 50.0 °F 88% 30.09 in 10.0 mi South 5.8 mph - N/A   Overcast
4:15 AM 53.6 °F 50.0 °F 88% 30.09 in 10.0 mi South 6.9 mph - N/A   Overcast
4:35 AM 53.6 °F 50.0 °F 88% 30.09 in 10.0 mi South 6.9 mph - N/A   Overcast
4:55 AM 53.6 °F 50.0 °F 88% 30.10 in 10.0 mi South 8.1 mph - N/A   Overcast
5:15 AM 53.6 °F 50.0 °F 88% 30.10 in 10.0 mi South 9.2 mph - N/A   Overcast
5:35 AM 53.6 °F 50.0 °F 88% 30.10 in 10.0 mi South 10.4 mph 16.1 mph N/A   Overcast
5:55 AM 53.6 °F 50.0 °F 88% 30.11 in 10.0 mi South 10.4 mph - N/A   Overcast
6:15 AM 53.6 °F 50.0 °F 88% 30.11 in 10.0 mi South 9.2 mph - N/A   Overcast
6:35 AM 53.6 °F 50.0 °F 88% 30.12 in 10.0 mi South 9.2 mph - N/A   Overcast
6:55 AM 53.6 °F 50.0 °F 88% 30.13 in 10.0 mi South 8.1 mph - N/A   Overcast
7:15 AM 53.6 °F 50.0 °F 88% 30.13 in 10.0 mi South 9.2 mph - N/A   Overcast
7:35 AM 53.6 °F 50.0 °F 88% 30.14 in 10.0 mi South 10.4 mph - N/A   Overcast
7:55 AM 53.6 °F 50.0 °F 88% 30.13 in 10.0 mi SSE 13.8 mph 17.3 mph N/A   Overcast
8:15 AM 55.4 °F 48.2 °F 77% 30.14 in 10.0 mi South 13.8 mph 19.6 mph N/A   Overcast
8:35 AM 55.4 °F 50.0 °F 82% 30.15 in 10.0 mi South 11.5 mph - N/A   Overcast
8:55 AM 55.4 °F 48.2 °F 77% 30.15 in 10.0 mi SSE 15.0 mph 20.7 mph N/A   Overcast
9:15 AM 55.4 °F 48.2 °F 77% 30.15 in 10.0 mi SSE 11.5 mph - N/A   Overcast
9:35 AM 55.4 °F 48.2 °F 77% 30.15 in 10.0 mi South 11.5 mph - N/A   Overcast
9:55 AM 57.2 °F 50.0 °F 77% 30.15 in 10.0 mi South 12.7 mph 17.3 mph N/A   Overcast
10:15 AM 57.2 °F 48.2 °F 72% 30.15 in 10.0 mi South 11.5 mph 18.4 mph N/A   Overcast
10:35 AM 57.2 °F 50.0 °F 77% 30.16 in 10.0 mi South 12.7 mph 19.6 mph N/A   Overcast
10:55 AM 59.0 °F 50.0 °F 72% 30.16 in 10.0 mi South 11.5 mph 18.4 mph N/A   Overcast
11:15 AM 59.0 °F 48.2 °F 67% 30.16 in 10.0 mi South 11.5 mph - N/A   Overcast
11:35 AM 60.8 °F 50.0 °F 68% 30.16 in 10.0 mi South 11.5 mph 16.1 mph N/A   Overcast
11:55 AM 60.8 °F 48.2 °F 63% 30.17 in 10.0 mi South 11.5 mph - N/A   Mostly Cloudy
12:15 PM 62.6 °F 50.0 °F 63% 30.17 in 10.0 mi SSE 11.5 mph - N/A   Overcast
12:35 PM 60.8 °F 48.2 °F 63% 30.17 in 10.0 mi South 11.5 mph 17.3 mph N/A   Mostly Cloudy
12:55 PM 62.6 °F 48.2 °F 59% 30.17 in 10.0 mi South 10.4 mph - N/A   Mostly Cloudy
1:15 PM 62.6 °F 50.0 °F 63% 30.17 in 6.0 mi SSE 6.9 mph 16.1 mph N/A   Mostly Cloudy
1:35 PM 62.6 °F 50.0 °F 63% 30.18 in 10.0 mi SE 13.8 mph 18.4 mph N/A   Mostly Cloudy
1:55 PM 64.4 °F 50.0 °F 59% 30.18 in 10.0 mi SSE 13.8 mph 18.4 mph N/A   Mostly Cloudy
2:15 PM 64.4 °F 50.0 °F 59% 30.18 in 10.0 mi SSW 10.4 mph - N/A   Scattered Clouds
2:35 PM 64.4 °F 48.2 °F 56% 30.19 in 10.0 mi SSE 9.2 mph 16.1 mph N/A   Scattered Clouds
2:55 PM 64.4 °F 50.0 °F 59% 30.18 in 10.0 mi ESE 10.4 mph - N/A   Mostly Cloudy
3:15 PM 66.2 °F 50.0 °F 56% 30.18 in 10.0 mi South 10.4 mph - N/A   Scattered Clouds
3:35 PM 66.2 °F 50.0 °F 56% 30.18 in 10.0 mi South 10.4 mph 16.1 mph N/A   Partly Cloudy
3:55 PM 66.2 °F 48.2 °F 52% 30.17 in 10.0 mi SSE 8.1 mph - N/A   Scattered Clouds
4:15 PM 66.2 °F 48.2 °F 52% 30.17 in 10.0 mi South 8.1 mph - N/A   Mostly Cloudy
4:35 PM 66.2 °F 48.2 °F 52% 30.16 in 10.0 mi SSE 9.2 mph - N/A   Partly Cloudy
4:55 PM 64.4 °F 48.2 °F 56% 30.15 in 10.0 mi SE 10.4 mph - N/A   Clear
5:15 PM 66.2 °F 48.2 °F 52% 30.15 in 10.0 mi SSE 9.2 mph - N/A   Clear
5:35 PM 64.4 °F 48.2 °F 56% 30.14 in 10.0 mi SSE 12.7 mph 16.1 mph N/A   Clear
5:55 PM 64.4 °F 48.2 °F 56% 30.14 in 10.0 mi SSE 12.7 mph 19.6 mph N/A   Mostly Cloudy
6:15 PM 64.4 °F 48.2 °F 56% 30.13 in 10.0 mi SSE 16.1 mph 20.7 mph N/A   Partly Cloudy
6:35 PM 64.4 °F 48.2 °F 56% 30.12 in 10.0 mi SSE 16.1 mph 24.2 mph N/A   Clear
6:55 PM 62.6 °F 48.2 °F 59% 30.15 in 10.0 mi SSE 11.5 mph 19.6 mph N/A   Clear
7:15 PM 62.6 °F 48.2 °F 59% 30.14 in 10.0 mi SSE 15.0 mph 20.7 mph N/A   Clear
7:35 PM 62.6 °F 48.2 °F 59% 30.15 in 10.0 mi SSE 11.5 mph 18.4 mph N/A   Clear
7:55 PM 60.8 °F 46.4 °F 59% 30.16 in 10.0 mi SSE 13.8 mph 20.7 mph N/A   Clear
8:15 PM 60.8 °F 46.4 °F 59% 30.16 in 10.0 mi SSE 13.8 mph 18.4 mph N/A   Clear
8:35 PM 59.0 °F 46.4 °F 63% 30.17 in 10.0 mi SSE 12.7 mph 19.6 mph N/A   Clear
8:55 PM 57.2 °F 46.4 °F 67% 30.18 in 10.0 mi South 13.8 mph 20.7 mph N/A   Clear
9:15 PM 57.2 °F 46.4 °F 67% 30.19 in 10.0 mi South 15.0 mph 20.7 mph N/A   Clear
9:35 PM 57.2 °F 46.4 °F 67% 30.19 in 10.0 mi South 18.4 mph 26.5 mph N/A   Clear
9:55 PM 57.2 °F 46.4 °F 67% 30.20 in 10.0 mi South 17.3 mph 23.0 mph N/A   Clear
10:15 PM 55.4 °F 46.4 °F 72% 30.21 in 10.0 mi South 13.8 mph 19.6 mph N/A   Clear
10:35 PM 55.4 °F 46.4 °F 72% 30.22 in 10.0 mi South 13.8 mph 18.4 mph N/A   Clear
10:55 PM 55.4 °F 46.4 °F 72% 30.22 in 10.0 mi South 13.8 mph 20.7 mph N/A   Partly Cloudy
11:15 PM 55.4 °F 46.4 °F 72% 30.23 in 10.0 mi South 15.0 mph - N/A   Mostly Cloudy
11:35 PM 55.4 °F 46.4 °F 72% 30.23 in 10.0 mi South 13.8 mph 21.9 mph N/A   Scattered Clouds
11:55 PM 55.4 °F 46.4 °F 72% 30.23 in 10.0 mi South 11.5 mph 17.3 mph N/A   Clear